Temperature
1 0 -1 -1 -2 -2 -3 -3 -4 -4 -4 -4 -4 -4 -4 -4 -5 -5 -5 -5 -5 -5 -4 -4 -4 -4 -3 -3 -2 -2 -2 -2 -2 -2 -1 -0 -0 -0
-0 -1 -2 -3 -3 -3 -4 -5 -5 -5 -5 -4 -5 -5 -5 -5 -5 -5 -6 -6 -6 -6 -5 -5 -5 -4 -3 -3 -3 -4 -3 -3 -3 -2 -2 -1 -0 -1
-1 -2 -3 -4 -5 -5 -5 -6 -6 -5 -5 -5 -5 -5 -6 -6 -6 -6 -7 -7 -7 -6 -6 -5 -5 -4 -4 -4 -4 -4 -4 -3 -3 -3 -2 -2 -1 -1
-3 -4 -5 -5 -5 -6 -6 -6 -6 -6 -6 -6 -6 -6 -6 -6 -7 -7 -7 -7 -8 -7 -7 -6 -5 -5 -5 -5 -5 -4 -4 -5 -4 -4 -3 -3 -2 -2
-4 -5 -5 -6 -6 -7 -7 -6 -7 -7 -7 -7 -7 -7 -6 -7 -7 -7 -8 -8 -8 -8 -8 -7 -7 -6 -6 -6 -5 -5 -6 -5 -5 -4 -4 -3 -3 -2
-5 -5 -6 -7 -7 -7 -7 -7 -7 -7 -7 -7 -7 -7 -7 -7 -8 -8 -9 -9 -8 -9 -8 -8 -8 -7 -7 -7 -7 -7 -6 -6 -5 -5 -4 -4 -4 -4
-5 -6 -7 -7 -7 -7 -7 -7 -7 -7 -7 -7 -8 -7 -8 -8 -9 -9 -9 -9 -9 -9 -9 -9 -9 -9 -9 -8 -8 -8 -7 -6 -6 -5 -5 -5 -4 -4
-6 -7 -7 -7 -7 -8 -8 -7 -7 -7 -7 -7 -8 -8 -9 -9 -9 -9 -9 -9 -10 -9 -9 -9 -9 -9 -9 -9 -9 -8 -7 -7 -6 -6 -6 -5 -5 -5
-7 -8 -8 -8 -8 -8 -8 -8 -8 -8 -8 -8 -9 -9 -9 -9 -9 -10 -10 -10 -10 -10 -10 -10 -10 -10 -9 -9 -9 -8 -8 -7 -7 -6 -6 -6 -6 -5
-8 -8 -8 -8 -8 -8 -8 -8 -8 -8 -8 -9 -9 -9 -9 -10 -10 -10 -10 -10 -10 -10 -10 -10 -10 -10 -9 -9 -9 -8 -8 -7 -7 -7 -6 -6 -6 -5
-8 -8 -8 -8 -8 -8 -8 -8 -9 -9 -9 -9 -10 -10 -10 -10 -10 -10 -10 -11 -11 -11 -10 -11 -11 -10 -10 -9 -8 -8 -8 -8 -7 -7 -7 -6 -6 -6
-8 -8 -8 -8 -8 -8 -9 -9 -9 -9 -10 -10 -10 -10 -10 -10 -11 -11 -11 -11 -11 -11 -10 -10 -10 -10 -10 -9 -9 -9 -9 -9 -8 -8 -7 -7 -7 -6
-8 -8 -8 -9 -9 -9 -10 -10 -10 -10 -10 -10 -11 -11 -11 -11 -11 -11 -11 -11 -11 -11 -10 -10 -10 -10 -10 -9 -9 -9 -9 -8 -8 -7 -6 -6 -6 -6
-8 -9 -9 -9 -10 -10 -11 -11 -10 -10 -11 -11 -11 -11 -11 -11 -11 -11 -11 -11 -10 -10 -10 -10 -10 -10 -10 -10 -10 -9 -8 -7 -7 -6 -5 -5 -5 -5
-9 -9 -10 -10 -11 -11 -11 -11 -11 -11 -12 -12 -12 -11 -11 -11 -11 -10 -10 -10 -10 -10 -10 -10 -10 -10 -10 -10 -10 -9 -8 -6 -5 -5 -5 -4 -4 -3
-9 -10 -10 -11 -11 -11 -11 -11 -11 -12 -12 -12 -12 -11 -11 -11 -11 -11 -11 -10 -10 -9 -9 -10 -9 -9 -9 -9 -8 -8 -7 -7 -5 -5 -4 -4 -3 -2
-10 -10 -11 -12 -11 -11 -11 -11 -12 -12 -12 -12 -11 -11 -11 -11 -10 -10 -10 -10 -10 -10 -9 -9 -9 -9 -8 -8 -7 -7 -6 -5 -5 -4 -4 -4 -3 -2
-11 -12 -12 -12 -13 -12 -12 -12 -12 -12 -12 -11 -11 -10 -11 -10 -10 -10 -10 -10 -10 -9 -9 -9 -9 -8 -7 -7 -7 -7 -6 -5 -4 -4 -4 -4 -4 -2
-12 -13 -13 -13 -13 -12 -12 -12 -12 -12 -11 -11 -10 -10 -10 -10 -10 -10 -10 -10 -10 -9 -9 -9 -8 -8 -8 -8 -6 -6 -5 -4 -4 -4 -4 -4 -5 -4
-13 -13 -13 -13 -12 -12 -12 -12 -11 -11 -10 -10 -10 -9 -9 -10 -10 -10 -10 -10 -10 -9 -9 -8 -8 -8 -7 -7 -7 -6 -4 -4 -3 -4 -4 -4 -4 -4
-13 -13 -13 -12 -12 -12 -11 -11 -11 -11 -10 -10 -9 -9 -9 -9 -9 -9 -9 -9 -9 -9 -9 -8 -8 -7 -6 -6 -6 -5 -5 -4 -4 -4 -3 -4 -4 -4
-13 -13 -12 -12 -11 -11 -11 -11 -10 -10 -9 -9 -8 -8 -8 -8 -9 -9 -9 -9 -9 -9 -9 -8 -7 -7 -6 -6 -5 -5 -5 -4 -4 -4 -4 -4 -4 -4
-13 -12 -11 -11 -11 -11 -10 -10 -10 -9 -8 -8 -8 -8 -8 -8 -8 -8 -8 -8 -8 -8 -8 -8 -7 -7 -6 -6 -6 -6 -5 -5 -4 -4 -4 -4 -4 -4
Wind_Speed
7 6 5 5 5 7 8 8 11 15 15 11 7 6 3 5 12 13 10 21 30 32 34 35 35 36 35 33 34 34 33 34 37 37 38 36 35 35
6 6 6 6 7 8 8 8 8 12 15 16 10 8 8 9 16 14 11 24 27 32 34 36 39 38 35 35 36 36 37 38 40 38 38 39 37 35
7 7 7 8 9 10 9 9 9 9 13 17 13 10 11 10 13 8 10 9 12 30 37 40 39 37 36 36 37 38 37 37 36 36 36 36 35 34
8 7 8 10 11 10 10 11 11 11 10 15 17 13 13 12 10 10 11 12 12 27 36 37 35 35 35 36 36 34 31 32 33 33 33 33 33 33
7 7 8 10 11 11 12 12 10 9 10 13 16 15 14 8 9 13 14 13 14 21 28 30 31 32 32 32 31 31 32 32 32 32 32 32 33 33
7 7 8 9 12 13 13 11 11 13 13 13 13 15 12 9 11 14 15 13 14 13 17 20 25 28 30 33 34 32 31 31 31 32 31 29 30 31
8 8 9 14 20 19 16 14 14 14 13 13 15 13 10 13 13 12 15 15 12 11 11 11 12 12 15 23 26 29 30 31 32 31 30 30 30 29
9 9 11 14 18 24 27 28 26 22 18 15 13 13 14 14 14 14 15 13 16 9 9 13 11 12 12 12 25 33 34 35 34 33 33 33 32 31
10 11 12 13 17 14 22 27 25 27 23 18 14 16 15 15 16 16 14 15 15 12 12 15 11 11 12 15 31 35 35 35 34 34 34 34 34 34
11 11 11 12 13 20 18 16 14 13 16 14 13 15 15 15 15 16 16 15 13 11 11 14 13 12 14 14 29 35 34 34 33 33 32 30 28 28
9 9 12 14 23 31 21 15 13 13 18 22 22 24 28 28 23 14 12 13 14 13 12 12 15 14 14 14 18 28 30 32 33 33 34 32 30 27
10 10 18 23 28 29 19 15 14 17 14 13 16 19 18 19 23 15 12 13 14 12 12 10 13 12 10 9 9 10 15 25 30 31 32 31 29 17
11 10 12 24 27 30 25 15 19 19 15 14 13 13 13 12 13 13 12 12 14 13 15 13 11 10 9 9 11 10 11 12 15 19 23 26 27 22
10 10 12 24 28 26 21 22 27 21 12 12 13 13 13 13 13 14 15 15 15 17 19 17 12 12 13 15 13 12 12 13 13 12 12 17 21 24
11 16 20 24 22 18 22 25 20 12 12 12 14 13 12 13 14 14 14 14 15 16 16 15 12 12 12 13 12 12 10 10 10 11 11 10 10 9
12 12 19 20 17 17 17 15 11 12 13 12 13 14 14 12 12 13 13 14 13 13 12 11 12 13 11 11 10 12 12 9 11 12 10 8 6 6
14 8 9 11 11 12 12 12 12 13 13 12 13 14 14 14 13 13 12 13 13 13 11 10 11 10 9 7 7 11 13 12 11 9 8 6 6 7
13 9 10 11 12 13 14 14 13 13 12 13 13 13 13 14 14 13 12 12 12 12 10 10 11 8 5 5 9 9 9 8 9 9 8 7 11 13
9 9 10 11 11 12 12 13 13 13 13 12 13 13 12 13 14 13 13 12 11 10 10 10 9 6 6 6 7 11 11 9 9 10 9 8 10 13
9 10 10 11 12 12 13 13 13 13 12 12 12 12 12 12 12 12 11 12 11 9 9 9 7 6 3 5 5 7 17 13 11 11 10 9 12 16
10 10 11 11 12 12 13 13 13 13 14 13 13 13 12 12 11 11 11 14 12 9 9 9 9 11 6 5 4 6 11 18 19 16 13 9 11 16
11 11 12 12 12 12 12 12 13 14 14 13 13 12 12 11 11 12 10 9 8 7 6 7 8 8 6 7 7 7 10 12 17 24 27 23 15 13
11 12 12 12 12 12 12 12 13 13 13 13 13 12 12 11 11 10 8 7 7 6 5 6 6 6 6 6 7 7 10 11 11 13 18 26 30 30
Wind_Direction
307 304 305 295 295 296 294 289 295 305 305 303 301 299 270 277 290 293 283 287 294 295 296 297 297 293 289 289 289 287 287 287 285 284 281 278 277 278
307 312 302 296 307 306 299 292 285 289 295 302 306 302 297 296 293 295 295 296 292 292 293 295 293 287 287 289 291 291 289 288 282 279 276 274 270 267
298 303 301 301 309 306 299 295 289 285 288 297 303 307 300 293 292 296 295 283 284 287 291 291 288 287 287 290 291 290 287 284 282 281 279 277 276 275
299 303 297 307 309 304 300 295 290 285 285 294 301 302 295 293 297 295 293 291 289 288 292 292 292 291 291 291 286 284 287 288 283 280 277 275 272 269
290 286 289 307 308 300 294 292 294 296 295 292 293 298 296 305 304 298 298 298 296 295 297 297 296 296 294 294 292 294 295 291 286 281 278 274 273 272
277 277 284 293 296 297 298 305 311 304 299 293 295 301 301 311 305 306 306 303 297 297 296 292 294 296 296 299 296 294 290 287 280 273 271 272 269 269
283 276 276 294 308 307 309 312 307 302 299 300 299 296 309 310 307 305 300 298 300 309 297 289 288 285 286 287 284 284 281 279 273 271 276 275 271 267
290 284 286 294 300 309 310 306 304 305 304 304 309 309 305 303 299 296 299 311 312 305 293 295 290 284 281 275 278 282 285 284 280 279 278 275 272 270
308 301 304 309 306 297 295 298 301 304 310 310 305 297 297 295 298 303 300 295 294 298 296 291 287 281 279 275 284 284 283 280 278 277 274 269 265 263
304 299 294 293 294 301 304 310 312 308 299 294 291 294 296 300 301 301 298 293 288 289 286 285 289 282 282 276 281 280 281 281 280 278 276 274 266 260
301 296 301 305 308 315 325 324 317 308 306 307 308 309 309 308 308 306 301 303 298 295 293 287 288 285 282 276 271 277 280 280 282 281 277 274 271 264
303 302 308 314 321 330 333 331 320 312 316 319 315 310 306 303 305 305 297 293 294 295 293 290 288 289 288 272 272 274 279 281 281 284 283 276 268 262
313 312 313 324 332 334 334 326 315 324 333 324 312 307 305 304 302 299 291 286 289 288 294 297 295 291 285 287 292 289 290 287 284 284 279 271 263 255
317 317 326 331 334 334 331 326 329 333 325 314 311 311 311 306 302 298 293 287 281 282 288 291 289 297 299 298 298 300 297 284 277 274 266 262 262 254
324 332 333 333 335 332 327 330 332 325 316 314 314 311 307 303 301 299 296 292 287 283 284 283 285 292 291 293 295 297 300 294 288 284 282 273 262 244
324 337 335 333 331 329 327 325 323 320 319 316 312 309 309 309 308 307 304 304 302 300 293 285 292 293 295 291 285 286 290 291 299 302 301 297 287 261
339 339 331 329 327 326 326 324 323 322 319 317 313 313 313 313 312 312 307 307 306 309 314 316 310 301 284 266 277 285 294 298 304 315 322 324 332 337
337 328 325 324 323 323 321 321 321 321 319 315 311 310 310 312 313 313 313 311 311 315 319 322 324 329 324 274 253 290 312 320 331 341 352 5 15 6
330 322 321 321 319 317 316 315 316 315 315 310 307 307 309 308 311 314 315 317 316 321 323 322 325 330 335 331 315 332 352 354 356 5 9 12 17 21
324 321 319 317 315 315 314 314 313 313 312 309 307 307 306 307 308 311 314 317 322 327 325 328 331 332 317 310 308 328 356 15 14 12 7 19 31 32
322 320 316 314 313 312 311 311 310 309 310 309 306 305 306 307 306 307 310 322 331 330 328 333 332 338 329 325 341 353 8 21 35 35 19 12 28 35
321 318 316 313 312 310 309 309 309 309 308 305 303 304 304 305 304 305 309 316 321 322 317 321 331 341 356 16 19 14 16 21 29 38 44 47 47 47
320 316 313 311 308 306 307 306 305 304 302 301 301 302 304 305 305 302 305 309 315 319 319 328 339 348 359 13 27 26 24 28 33 40 41 42 51 56
Height
1445 1441 1437 1433 1428 1423 1418 1413 1407 1394 1382 1383 1384 1381 1379 1375 1372 1369 1364 1360 1356 1352 1348 1343 1338 1333 1330 1326 1323 1320 1317 1315 1313 1310 1309 1307 1307 1305
1440 1436 1431 1426 1421 1415 1410 1406 1402 1396 1383 1376 1375 1374 1370 1366 1362 1359 1354 1350 1346 1342 1337 1333 1327 1322 1318 1314 1311 1306 1303 1301 1300 1297 1295 1294 1294 1293
1435 1430 1425 1420 1414 1408 1403 1399 1396 1392 1384 1373 1369 1365 1361 1357 1351 1346 1342 1338 1334 1331 1325 1319 1313 1309 1304 1300 1297 1294 1291 1288 1286 1283 1281 1280 1280 1280
1428 1424 1419 1414 1409 1403 1398 1394 1390 1386 1381 1371 1362 1358 1353 1348 1342 1337 1331 1327 1322 1316 1310 1305 1300 1296 1292 1288 1284 1281 1278 1275 1273 1271 1269 1267 1267 1266
1423 1418 1414 1408 1402 1398 1394 1389 1384 1379 1374 1367 1357 1351 1345 1340 1333 1327 1321 1315 1309 1304 1299 1294 1289 1285 1280 1276 1272 1269 1266 1264 1262 1259 1258 1257 1255 1254
1418 1413 1408 1403 1398 1393 1389 1384 1379 1373 1366 1359 1351 1344 1338 1333 1327 1319 1310 1305 1299 1293 1288 1284 1280 1275 1270 1266 1262 1258 1255 1252 1250 1248 1246 1244 1243 1242
1412 1408 1404 1399 1394 1390 1385 1379 1374 1366 1359 1353 1345 1336 1331 1325 1319 1312 1304 1296 1290 1287 1280 1272 1269 1262 1257 1253 1249 1246 1243 1240 1238 1235 1233 1232 1231 1231
1406 1402 1397 1392 1388 1383 1379 1373 1368 1361 1354 1347 1339 1332 1325 1319 1312 1305 1298 1291 1282 1278 1273 1264 1261 1252 1247 1242 1238 1235 1231 1228 1225 1223 1221 1219 1219 1218
1400 1395 1390 1386 1381 1375 1369 1364 1359 1354 1348 1342 1334 1327 1320 1314 1307 1299 1292 1285 1277 1269 1265 1255 1251 1244 1238 1232 1228 1224 1219 1215 1212 1209 1207 1205 1205 1204
1394 1390 1385 1379 1373 1368 1362 1356 1349 1344 1339 1333 1328 1321 1315 1309 1302 1294 1286 1278 1270 1263 1258 1249 1242 1235 1228 1222 1216 1211 1208 1204 1200 1196 1194 1191 1190 1190
1390 1385 1380 1375 1368 1363 1356 1348 1341 1335 1330 1325 1320 1314 1308 1301 1295 1287 1279 1272 1263 1255 1250 1243 1232 1225 1218 1210 1204 1201 1197 1194 1189 1185 1181 1179 1178 1178
1384 1380 1375 1370 1364 1357 1350 1343 1334 1328 1322 1315 1309 1304 1298 1292 1286 1281 1273 1266 1257 1248 1242 1236 1227 1220 1209 1202 1197 1192 1186 1180 1176 1171 1167 1164 1164 1165
1379 1373 1368 1363 1358 1352 1345 1337 1330 1324 1316 1309 1302 1295 1290 1285 1279 1272 1266 1260 1252 1243 1237 1232 1223 1216 1209 1198 1189 1183 1177 1170 1164 1157 1152 1150 1149 1149
1376 1369 1363 1358 1352 1345 1338 1332 1326 1319 1311 1304 1298 1292 1285 1278 1271 1265 1259 1252 1246 1239 1232 1227 1219 1213 1205 1194 1184 1175 1168 1161 1154 1148 1143 1139 1136 1135
1372 1365 1358 1353 1346 1339 1332 1327 1321 1313 1307 1301 1295 1288 1281 1273 1266 1259 1252 1246 1239 1233 1226 1220 1215 1208 1200 1191 1181 1172 1163 1154 1149 1143 1137 1132 1127 1126
1366 1359 1353 1347 1341 1335 1328 1322 1316 1311 1306 1299 1291 1284 1276 1269 1262 1256 1248 1241 1234 1226 1221 1216 1210 1203 1194 1187 1179 1171 1164 1155 1147 1141 1136 1130 1125 1123
1361 1354 1348 1342 1335 1330 1324 1319 1313 1307 1300 1294 1288 1280 1273 1266 1259 1253 1246 1239 1232 1224 1216 1211 1206 1199 1192 1186 1179 1171 1163 1155 1149 1143 1137 1131 1125 1121
1357 1351 1345 1339 1334 1328 1321 1315 1309 1303 1297 1291 1285 1278 1272 1265 1257 1250 1244 1237 1230 1223 1216 1210 1204 1198 1193 1186 1180 1172 1165 1159 1153 1147 1141 1135 1127 1119
1354 1348 1343 1337 1331 1325 1319 1312 1306 1300 1294 1288 1282 1276 1269 1262 1255 1248 1242 1236 1230 1224 1218 1211 1206 1201 1195 1189 1184 1178 1171 1165 1158 1152 1146 1140 1134 1127
1351 1346 1340 1334 1328 1323 1316 1310 1303 1297 1291 1285 1280 1274 1267 1260 1254 1247 1242 1236 1231 1225 1218 1213 1209 1205 1200 1196 1190 1184 1179 1173 1167 1160 1154 1150 1144 1136
1347 1342 1337 1331 1326 1320 1313 1307 1301 1294 1288 1283 1277 1271 1265 1259 1253 1247 1242 1237 1232 1227 1221 1217 1213 1209 1206 1201 1196 1192 1187 1183 1178 1172 1165 1159 1154 1148
1344 1339 1333 1328 1323 1317 1310 1304 1298 1292 1286 1280 1275 1269 1263 1257 1252 1247 1242 1237 1233 1229 1224 1221 1217 1214 1209 1206 1202 1199 1196 1192 1188 1183 1179 1174 1171 1167
1341 1336 1331 1325 1320 1313 1307 1301 1294 1289 1284 1278 1272 1267 1261 1256 1252 1247 1243 1239 1235 1231 1227 1224 1221 1217 1214 1211 1209 1206 1204 1201 1198 1194 1191 1189 1187 1184